Location: Newark
(51.0967°N, 24.7917°E)
Time: 03:25:00
(UTC+00:00)

STARLINK-1288 - Pass Details

Date: 01 April 2020
Orbit: 549 x 550 km, 53.0° (Epoch: 29 May)

Event Time Altitude Azimuth Distance (km) Brightness Sun altitude
Exits shadow 00:41:17 22° 103° (ESE) 1,228 5.6 -27.1°
Drops below altitude 10° 00:43:16 10° 82° (E) 1,824 6.8 -26.9°
Enters shadow 01:41:28 -67° 248° (WSW) 12,306 10.4 -20.2°
Maximum altitude 02:18:55 88° 161° (SSE) 555 3.5 -15.3°
